This is the latest recevied weather packets stored in our database for station/object G4KVI. If no packets are shown the sender has not sent any weather packets the latest 10 day(s).
| Time | Temp. | Humidity | Pressure | Rain* | Wind** | Luminosity | Snow |
|---|---|---|---|---|---|---|---|
| 1777964468 | 10° C | 81% | 1016.5 hPa | 0 mm | - | 162 W/m² | - |
| 1777964168 | 9.44° C | 81% | 1016.3 hPa | 0 mm | - | 147 W/m² | - |
| 1777963868 | 9.44° C | 82% | 1016.5 hPa | 0 mm | - | 145 W/m² | - |
| 1777963568 | 9.44° C | 82% | 1016.5 hPa | 0 mm | - | 136 W/m² | - |
| 1777963268 | 9.44° C | 82% | 1016.6 hPa | 0 mm | - | 132 W/m² | - |
| 1777962968 | 9.44° C | 82% | 1016.5 hPa | 0 mm | - | 126 W/m² | - |
| 1777962668 | 9.44° C | 84% | 1016.5 hPa | 0 mm | - | 120 W/m² | - |
| 1777962368 | 9.44° C | 84% | 1016.4 hPa | 0 mm | - | 110 W/m² | - |
| 1777962068 | 9.44° C | 85% | 1016.6 hPa | 0 mm | - | 94 W/m² | - |
| 1777961768 | 9.44° C | 86% | 1016.3 hPa | 0 mm | - | 91 W/m² | - |
| 1777961468 | 8.89° C | 87% | 1016.4 hPa | 0 mm | - | 93 W/m² | - |
| 1777961168 | 8.89° C | 88% | 1016.5 hPa | 0 mm | - | 86 W/m² | - |
| 1777960868 | 8.89° C | 89% | 1016.3 hPa | 0 mm | - | 59 W/m² | - |
| 1777960568 | 8.89° C | 89% | 1016.4 hPa | 0 mm | - | 56 W/m² | - |
| 1777960268 | 8.89° C | 90% | 1016.4 hPa | 0 mm | - | 62 W/m² | - |
| 1777959968 | 8.89° C | 90% | 1016.4 hPa | 0 mm | - | 52 W/m² | - |
| 1777959668 | 8.89° C | 91% | 1016.4 hPa | 0 mm | - | 43 W/m² | - |
| 1777959368 | 8.89° C | 91% | 1016.5 hPa | 0 mm | - | 38 W/m² | - |
| 1777959068 | 8.89° C | 91% | 1016.4 hPa | 0 mm | - | 31 W/m² | - |
| 1777958768 | 8.89° C | 91% | 1016.4 hPa | 0 mm | - | 26 W/m² | - |
| 1777958468 | 8.33° C | 91% | 1016.5 hPa | 0 mm | - | 21 W/m² | - |
| 1777958168 | 8.33° C | 91% | 1016.3 hPa | 0 mm | - | 17 W/m² | - |
| 1777957868 | 8.33° C | 91% | 1016.5 hPa | 0 mm | - | 14 W/m² | - |
| 1777957568 | 8.89° C | 91% | 1016.5 hPa | 0 mm | - | 11 W/m² | - |
| 1777957268 | 8.33° C | 92% | 1016.4 hPa | 0 mm | - | 10 W/m² | - |
* Rain latest hour (hover to see other rain measurements)
** Current wind speed in m/s (hover to see current wind gust speed)